Change the Weather History Date:

Wednesday, November 7, 2012

  Actual Average Record
Temperature  
Mean Temperature 43 °F -  
Max Temperature 64 °F 45 °F 82 °F (1999)
Min Temperature 21 °F 21 °F 0 °F (2003)
Degree Days  
Heating Degree Days 22 32  
Month to date heating degree days 176 212  
Since 1 July heating degree days 1164 1267  
Moisture  
Dew Point 27 °F    
Average Humidity 51    
Maximum Humidity 81    
Minimum Humidity 27    
Precipitation  
Precipitation 0.00 in 0.03 in 0.05 in (1998)
Month to date precipitation 0.01 0.26  
Year to date precipitation 14.53 15.45  
Sea Level Pressure  
Sea Level Pressure 29.87 in    
Wind  
Wind Speed 9 mph (SSE)    
Max Wind Speed 24 mph    
Max Gust Speed 32 mph    
Visibility 10 miles    
Events      
T = Trace of Precipitation, MM = Missing Value Source: NWS Daily Summary

Daily Weather History Graph

Daily Weather History Graph

Search for Another Location

Airport or City:

Trip Planner

Search our weather history database for the weather conditions in past years. The results will help you decide how hot, cold, wet, or windy it might be!

Date:

Astronomy

Nov. 07, 2012 Rise Set
Actual Time 6:40 AM MST 4:27 PM MST
Civil Twilight 6:08 AM MST 4:59 PM MST
Nautical Twilight 5:32 AM MST 5:35 PM MST
Astronomical Twilight 4:58 AM MST 6:09 PM MST
Moon No Moon Rise 12:57 PM MST (11/7)
Length of Visible Light 10h 50m
Length of Day
9h 47m
Last Quarter, 42% of the Moon is Illuminated
Nov 7
Last Quarter
Nov 13
New
Nov 20
First Quarter
Nov 28
Full
Dec 6
Last Quarter

Hourly Weather History & Observations

Time (MST) Temp. Windchill Dew Point Humidity Pressure Visibility Wind Dir Wind Speed Gust Speed Precip Events Conditions
12:53 AM 24.1 °F 18.2 °F 19.0 °F 81% 30.11 in 10.0 mi SE 4.6 mph - N/A   Clear
1:53 AM 30.9 °F 24.3 °F 23.0 °F 72% 30.07 in 10.0 mi SE 6.9 mph - N/A   Clear
2:53 AM 33.1 °F 26.1 °F 23.0 °F 66% 30.04 in 10.0 mi SE 8.1 mph - N/A   Partly Cloudy
3:53 AM 34.0 °F 26.6 °F 23.0 °F 64% 30.01 in 10.0 mi SE 9.2 mph - N/A   Clear
4:53 AM 33.1 °F 25.5 °F 23.0 °F 66% 30.01 in 10.0 mi SSE 9.2 mph - N/A   Clear
5:53 AM 35.1 °F 27.4 °F 21.9 °F 59% 29.99 in 10.0 mi SE 10.4 mph - N/A   Clear
6:53 AM 36.0 °F 28.0 °F 21.9 °F 57% 29.98 in 10.0 mi SSE 11.5 mph - N/A   Clear
7:53 AM 39.0 °F 32.3 °F 21.9 °F 50% 29.97 in 10.0 mi SSE 10.4 mph - N/A   Clear
8:53 AM 42.1 °F 35.2 °F 23.0 °F 47% 29.94 in 10.0 mi SSE 12.7 mph - N/A   Clear
9:53 AM 48.0 °F - 24.1 °F 39% 29.91 in 10.0 mi SSE 13.8 mph 21.9 mph N/A   Clear
10:53 AM 53.1 °F - 26.1 °F 35% 29.86 in 10.0 mi SSE 10.4 mph - N/A   Clear
11:53 AM 57.0 °F - 27.0 °F 32% 29.82 in 10.0 mi South 10.4 mph - N/A   Clear
12:53 PM 61.0 °F - 27.0 °F 27% 29.77 in 10.0 mi South 13.8 mph - N/A   Clear
1:53 PM 61.0 °F - 28.0 °F 29% 29.75 in 10.0 mi South 10.4 mph - N/A   Clear
2:53 PM 63.0 °F - 28.9 °F 28% 29.73 in 10.0 mi SSE 10.4 mph - N/A   Clear
3:53 PM 60.1 °F - 30.0 °F 32% 29.73 in 10.0 mi SSE 6.9 mph - N/A   Clear
4:53 PM 54.0 °F - 30.0 °F 40% 29.74 in 10.0 mi SSE 5.8 mph - N/A   Clear
5:53 PM 51.1 °F - 30.0 °F 44% 29.75 in 10.0 mi SE 5.8 mph - N/A   Clear
6:53 PM 46.0 °F 44.8 °F 30.0 °F 54% 29.75 in 10.0 mi SSE 3.5 mph - N/A   Clear
7:53 PM 42.1 °F - 30.0 °F 62% 29.75 in 10.0 mi Calm Calm - N/A   Clear
8:53 PM 39.0 °F - 28.9 °F 67% 29.75 in 10.0 mi Calm Calm - N/A   Clear
9:53 PM 52.0 °F - 34.0 °F 50% 29.76 in 10.0 mi North 24.2 mph 32.2 mph N/A   Clear
10:53 PM 48.9 °F - 34.0 °F 56% 29.80 in 10.0 mi NNW 12.7 mph - N/A   Clear
11:53 PM 42.1 °F 37.1 °F 34.0 °F 73% 29.83 in 10.0 mi NW 8.1 mph - N/A   Clear